| time (UTC) | temp C | wind direction | speed KPH | gust KPH | rain 1hr cm | rain 24hr cm | rain mn cm | humidity % | barometer mb |
| 20260505123810 | 12 | 0 | 0.0 | 0.0 | 0.00 | 0.00 | 0.00 | 76 | 1020.1 |
| 20260505121811 | 12 | 297 | 0.0 | 1.6 | 0.00 | 0.00 | 0.00 | 74 | 1020.2 |
| 20260505115810 | 12 | 225 | 0.0 | 1.6 | 0.00 | 0.00 | 0.00 | 72 | 1020.1 |
| 20260505113810 | 13 | 0 | 0.0 | 0.0 | 0.00 | 0.00 | 0.00 | 71 | 1019.9 |
| 20260505111811 | 13 | 250 | 0.0 | 1.6 | 0.00 | 0.00 | 0.00 | 67 | 1020.0 |
| 20260505101811 | 16 | 292 | 1.6 | 4.8 | 0.00 | 0.00 | 0.00 | 54 | 1019.5 |
| 20260505095811 | 16 | 343 | 0.0 | 3.2 | 0.00 | 0.00 | 0.00 | 53 | 1019.4 |
| 20260505093811 | 17 | 274 | 0.0 | 6.4 | 0.00 | 0.00 | 0.00 | 50 | 1018.9 |
| 20260505091811 | 18 | 302 | 0.0 | 8.0 | 0.00 | 0.00 | 0.00 | 45 | 1019.0 |
| 20260505085811 | 20 | 303 | 1.6 | 6.4 | 0.00 | 0.00 | 0.00 | 43 | 1018.7 |
| 20260505083810 | 18 | 292 | 4.8 | 14.5 | 0.00 | 0.00 | 0.00 | 50 | 1018.6 |
| 20260505081811 | 19 | 280 | 1.6 | 14.5 | 0.00 | 0.00 | 0.00 | 45 | 1018.3 |
| 20260505075812 | 20 | 288 | 1.6 | 12.9 | 0.00 | 0.00 | 0.00 | 43 | 1018.5 |
| 20260505073811 | 19 | 298 | 4.8 | 17.7 | 0.00 | 0.00 | 0.00 | 43 | 1018.4 |
| 20260505071812 | 20 | 295 | 8.0 | 14.5 | 0.00 | 0.00 | 0.00 | 42 | 1018.2 |
| 20260505065809 | 20 | 288 | 9.7 | 16.1 | 0.00 | 0.00 | 0.00 | 42 | 1018.1 |
| 20260505063809 | 20 | 293 | 6.4 | 14.5 | 0.00 | 0.00 | 0.00 | 39 | 1017.9 |
| 20260505061810 | 20 | 296 | 8.0 | 16.1 | 0.00 | 0.00 | 0.00 | 42 | 1018.0 |
| 20260505055810 | 21 | 285 | 4.8 | 14.5 | 0.00 | 0.00 | 0.00 | 38 | 1017.8 |
| 20260505053809 | 21 | 294 | 4.8 | 17.7 | 0.00 | 0.00 | 0.00 | 34 | 1017.5 |
| 20260505051810 | 21 | 296 | 0.0 | 14.5 | 0.00 | 0.00 | 0.00 | 31 | 1017.5 |